Regional Weather Roundup
Issued by NWS

Home | Current Version | Previous Version | Text Only | Print | Product List | Glossary Off
Versions: 1 2 3 4 5 6 7 8 9 10 11 12 13 14 15 16 17 18 19 20 21 22 23 24 25 26 27 28 29 30 31 32 33 34 35 36 37 38 39 40 41 42 43 44 45 46 47 48 49

000
ASUS45 KCYS 040610
RWRWY

WYOMING REGIONAL WEATHER ROUNDUP
NATIONAL WEATHER SERVICE CHEYENNE WY
1200 AM MDT MON MAY 04 2015

NOTE:  "FAIR" INDICATES FEW OR NO CLOUDS BELOW 12,000 FEET
WITH NO SIGNIFICANT WEATHER AND/OR OBSTRUCTIONS TO VISIBILITY.

WYZ001-040700-
YELLOWSTONE NATIONAL PARK

CITY           SKY/WX    TMP DP  RH WIND       PRES   REMARKS
LK YELLOWSTONE   N/A     30  29  96 CALM      30.12S
6HR MIN TEMP:  30; 6HR MAX TEMP:  47; 6HR PCP:  0.04;

W YELLOWSTONE  NOT AVBL

$$
WYZ002>013-054>058-071-098>099-040700-
NORTHERN WYOMING

CITY           SKY/WX    TMP DP  RH WIND       PRES   REMARKS
JACKSON        FAIR      41  41 100 CALM      30.06F
CODY           FAIR      50  41  71 SE7       30.02R
GREYBULL       MOCLDY    61  37  41 W3        29.98S
6HR MIN TEMP:  61; 6HR MAX TEMP:  71;

WORLAND        CLOUDY    56  41  57 CALM      30.00R
6HR MIN TEMP:  55; 6HR MAX TEMP:  67;

SHERIDAN       FAIR      49  42  77 SE8       30.01F
6HR MIN TEMP:  48; 6HR MAX TEMP:  61; 6HR PCP: TRACE;

BUFFALO        CLOUDY    50  46  86 S14       30.08S
6HR MIN TEMP:  50; 6HR MAX TEMP:  57; 6HR PCP:  0.01;

GILLETTE       RAIN      48  44  86 S12       30.08R
6HR MIN TEMP:  48; 6HR MAX TEMP:  64; 6HR PCP:  0.09;

HULETT         LGT RAIN  46  45  93 NE3       30.08F
NEWCASTLE      LGT RAIN  52  36  54 SW10      30.10R

$$
WYZ014>020-022>026-101>103-040700-
CENTRAL WYOMING

CITY           SKY/WX    TMP DP  RH WIND       PRES   REMARKS
BIG PINEY      FAIR      40  36  86 NW6       30.11F
6HR MIN TEMP:  40; 6HR MAX TEMP:  58; 6HR PCP:  0.01;

PINEDALE       CLOUDY    39  39 100 CALM      30.11S
DUBOIS         FAIR      39  34  81 CALM      30.08F
LANDER         CLOUDY    52  40  63 NW12      30.03R
6HR MIN TEMP:  51; 6HR MAX TEMP:  58;

RIVERTON       CLOUDY    52  42  69 N14       30.06R
6HR MIN TEMP:  52; 6HR MAX TEMP:  60;

CASPER         CLOUDY    48  46  93 N7        30.05S
6HR MIN TEMP:  48; 6HR MAX TEMP:  65; 6HR PCP:  0.03;

DOUGLAS        CLOUDY    50  48  93 SE8       30.05R
6HR MIN TEMP:  49; 6HR MAX TEMP:  64; 6HR PCP:  0.21;


$$
WYZ021-027>030-104>119-040700-
SOUTHERN WYOMING

CITY           SKY/WX    TMP DP  RH WIND       PRES   REMARKS
EVANSTON       CLOUDY    46  38  73 SE10      30.07S
6HR MIN TEMP:  46; 6HR MAX TEMP:  60;

KEMMERER       FAIR      39  37  93 N7        30.10S WCI  34
FORT BRIDGER   PTCLDY    45  41  87 SE5       30.11F
ROCK SPRINGS   FAIR      46  37  71 SW7       30.06R
6HR MIN TEMP:  46; 6HR MAX TEMP:  58; 6HR PCP: TRACE;

DIXON          CLOUDY    49  45  86 E7        30.13F
RAWLINS        MOCLDY    42  39  89 VRB5      30.09R
6HR MIN TEMP:  41; 6HR MAX TEMP:  50; 6HR PCP: TRACE;

SARATOGA       MOCLDY    45  37  76 S8G18     30.11R
LARAMIE        CLOUDY    43  41  93 S8        30.12S
6HR MIN TEMP:  41; 6HR MAX TEMP:  51; 6HR PCP:  0.02;

CHEYENNE       MOCLDY    48  43  82 E5        30.11S
6HR MIN TEMP:  47; 6HR MAX TEMP:  52; 6HR PCP: TRACE;

TORRINGTON     FAIR      53  42  66 E13       30.05F
6HR MIN TEMP:  53; 6HR MAX TEMP:  67; 6HR PCP: TRACE;

PINE BLUFFS    MOCLDY    48  46  93 N5        30.10S

$$



USA.gov is the U.S. government's official web portal to all federal, state and local government web resources and services.